Total_Precipitation_Accumulation
1.77 1.99 1.61 0.94 0.75 0.67 0.55 0.49 0.41 0.40 0.40 0.48 0.47 0.51 0.54 0.53 0.53 0.61 0.73 0.79 0.82 0.82 0.89 1.16 1.48 1.70 2.03 2.44 2.62 2.63 2.60 2.80 3.04 2.93 2.68 2.43 2.16 1.90 1.70 1.57 1.46 1.37 1.28 1.20
1.70 1.44 0.89 0.66 0.70 0.73 0.68 0.62 0.49 0.46 0.43 0.50 0.48 0.50 0.49 0.53 0.54 0.59 0.67 0.73 0.73 0.68 0.78 1.04 1.30 1.56 1.75 2.25 2.56 2.57 2.66 2.83 3.03 2.94 2.79 2.68 2.55 2.31 2.08 1.92 1.66 1.46 1.36 1.28
1.26 0.89 0.72 0.87 0.91 0.85 0.76 0.65 0.52 0.52 0.57 0.53 0.49 0.53 0.44 0.45 0.49 0.50 0.62 0.69 0.67 0.63 0.71 0.89 1.09 1.33 1.47 1.76 2.17 2.35 2.41 2.64 2.80 3.01 3.28 3.23 3.06 2.66 2.21 1.91 1.79 1.65 1.60 1.50
1.06 0.74 0.85 1.08 1.04 0.83 0.76 0.52 0.53 0.54 0.67 0.69 0.53 0.69 0.47 0.41 0.46 0.48 0.59 0.67 0.67 0.64 0.68 0.83 0.98 1.08 1.25 1.41 1.73 2.11 2.33 2.47 2.52 2.64 2.96 3.08 2.91 2.52 2.13 1.89 1.88 1.92 1.85 1.80
1.03 0.75 0.91 1.15 0.95 0.78 0.68 0.49 0.58 0.64 0.72 0.72 0.50 0.60 0.51 0.42 0.49 0.52 0.59 0.67 0.69 0.70 0.75 0.83 0.89 0.90 1.00 1.20 1.51 1.83 2.09 2.32 2.36 2.31 2.45 2.71 2.82 2.69 2.48 2.26 2.12 2.03 1.95 1.85
0.76 0.75 0.95 1.01 0.85 0.83 0.75 0.78 0.90 0.98 1.17 1.12 0.49 0.49 0.47 0.46 0.56 0.56 0.56 0.66 0.73 0.79 0.81 0.82 0.84 0.83 0.89 1.02 1.25 1.51 1.76 2.09 2.26 2.21 2.26 2.36 2.44 2.54 2.47 2.27 2.22 2.13 2.09 1.96
1.02 0.99 0.93 0.99 1.21 1.17 1.17 1.56 1.92 1.87 1.65 0.95 0.29 0.34 0.48 0.43 0.49 0.52 0.56 0.64 0.69 0.71 0.71 0.70 0.69 0.70 0.80 0.93 1.04 1.24 1.37 1.63 1.91 2.02 2.06 2.09 2.19 2.25 2.32 2.32 2.27 2.23 2.09 1.94
1.13 1.19 0.90 0.97 1.29 1.34 1.18 1.39 1.51 1.30 0.86 0.45 0.24 0.38 0.47 0.39 0.41 0.45 0.50 0.58 0.68 0.73 0.73 0.70 0.66 0.71 0.82 0.85 0.92 1.06 1.18 1.30 1.53 1.72 1.78 1.81 1.95 2.02 1.99 2.09 2.10 2.07 2.01 1.92
0.85 0.92 0.72 0.76 0.91 1.04 1.13 1.04 0.82 1.01 0.73 0.51 0.36 0.32 0.35 0.34 0.37 0.42 0.44 0.49 0.60 0.66 0.65 0.67 0.69 0.74 0.79 0.82 0.86 0.94 1.04 1.08 1.19 1.40 1.52 1.62 1.68 1.69 1.63 1.63 1.66 1.71 1.77 1.79
0.76 0.89 0.77 0.80 1.01 1.05 0.99 0.86 0.92 1.21 1.01 0.73 0.39 0.30 0.44 0.42 0.42 0.42 0.43 0.45 0.54 0.61 0.65 0.67 0.69 0.68 0.69 0.74 0.77 0.84 0.88 0.89 0.95 1.07 1.16 1.32 1.43 1.42 1.44 1.44 1.40 1.39 1.38 1.43
0.65 0.88 0.97 0.95 1.06 0.87 0.77 0.87 0.96 0.97 0.80 0.83 0.56 0.40 0.40 0.42 0.43 0.45 0.50 0.50 0.55 0.59 0.66 0.70 0.73 0.70 0.68 0.73 0.76 0.77 0.73 0.75 0.79 0.87 0.93 1.00 1.13 1.20 1.24 1.26 1.18 1.18 1.14 1.11
0.51 0.74 0.92 0.76 0.57 0.52 0.58 0.60 0.75 1.01 0.77 0.64 0.59 0.40 0.28 0.33 0.37 0.43 0.51 0.51 0.51 0.54 0.58 0.63 0.69 0.69 0.69 0.72 0.75 0.78 0.71 0.69 0.71 0.76 0.78 0.82 0.91 1.03 1.08 1.12 1.06 1.00 1.01 0.95
0.55 0.71 0.91 0.79 0.67 0.62 0.60 0.46 0.55 0.81 0.98 0.73 0.66 0.42 0.25 0.29 0.34 0.40 0.48 0.49 0.49 0.49 0.52 0.54 0.56 0.61 0.65 0.67 0.70 0.76 0.74 0.66 0.64 0.66 0.66 0.71 0.78 0.87 0.93 0.94 0.97 0.91 0.93 0.87
0.69 0.65 0.72 0.73 0.59 0.56 0.53 0.43 0.52 0.94 1.14 0.65 0.43 0.35 0.29 0.31 0.34 0.37 0.41 0.43 0.43 0.42 0.40 0.41 0.45 0.50 0.54 0.59 0.64 0.67 0.70 0.69 0.69 0.66 0.62 0.65 0.69 0.81 0.85 0.81 0.85 0.84 0.89 0.91
0.58 0.63 0.47 0.41 0.30 0.33 0.39 0.43 0.52 0.71 0.63 0.60 0.35 0.30 0.31 0.31 0.34 0.36 0.34 0.33 0.31 0.30 0.30 0.32 0.33 0.36 0.41 0.45 0.49 0.55 0.59 0.62 0.67 0.68 0.65 0.64 0.64 0.73 0.78 0.72 0.73 0.75 0.78 0.89
0.37 0.49 0.43 0.38 0.25 0.28 0.38 0.39 0.41 0.46 0.47 0.47 0.35 0.32 0.26 0.27 0.29 0.29 0.25 0.23 0.21 0.20 0.21 0.22 0.22 0.24 0.26 0.30 0.36 0.41 0.46 0.52 0.60 0.62 0.64 0.63 0.62 0.65 0.74 0.72 0.70 0.72 0.76 0.85
0.28 0.38 0.51 0.41 0.24 0.30 0.41 0.34 0.38 0.42 0.42 0.43 0.48 0.39 0.26 0.25 0.25 0.23 0.22 0.19 0.17 0.15 0.15 0.15 0.15 0.16 0.17 0.20 0.25 0.29 0.34 0.39 0.46 0.54 0.59 0.62 0.65 0.68 0.74 0.75 0.75 0.80 0.88 0.94
0.22 0.35 0.58 0.44 0.28 0.35 0.29 0.18 0.24 0.33 0.33 0.30 0.33 0.28 0.24 0.22 0.21 0.21 0.20 0.17 0.14 0.13 0.14 0.16 0.16 0.16 0.16 0.17 0.17 0.19 0.25 0.31 0.36 0.41 0.49 0.53 0.59 0.63 0.66 0.73 0.78 0.84 0.89 0.96
0.15 0.37 0.65 0.51 0.33 0.21 0.18 0.17 0.23 0.33 0.37 0.27 0.25 0.20 0.20 0.18 0.16 0.18 0.16 0.16 0.15 0.13 0.13 0.14 0.14 0.14 0.15 0.15 0.15 0.17 0.22 0.28 0.33 0.40 0.47 0.52 0.60 0.63 0.67 0.74 0.77 0.81 0.88 0.92
0.16 0.31 0.64 0.54 0.43 0.26 0.19 0.12 0.13 0.26 0.44 0.24 0.19 0.18 0.18 0.17 0.22 0.19 0.14 0.14 0.15 0.13 0.12 0.13 0.14 0.15 0.16 0.18 0.20 0.22 0.26 0.30 0.34 0.40 0.48 0.51 0.59 0.69 0.73 0.76 0.75 0.73 0.78 0.85
0.26 0.40 0.52 0.44 0.40 0.18 0.11 0.07 0.10 0.34 0.45 0.21 0.16 0.16 0.16 0.16 0.20 0.17 0.13 0.12 0.12 0.13 0.13 0.13 0.14 0.16 0.21 0.26 0.28 0.29 0.32 0.37 0.38 0.40 0.45 0.45 0.50 0.56 0.60 0.63 0.64 0.65 0.66 0.68
0.15 0.21 0.20 0.22 0.33 0.23 0.12 0.10 0.20 0.26 0.16 0.12 0.11 0.11 0.12 0.15 0.15 0.15 0.14 0.13 0.13 0.16 0.15 0.15 0.17 0.18 0.20 0.27 0.34 0.34 0.33 0.35 0.35 0.35 0.39 0.41 0.43 0.47 0.49 0.51 0.55 0.57 0.56 0.56
0.11 0.15 0.18 0.17 0.19 0.15 0.13 0.14 0.16 0.13 0.10 0.09 0.09 0.09 0.09 0.13 0.14 0.15 0.15 0.12 0.11 0.14 0.15 0.14 0.15 0.16 0.17 0.21 0.28 0.35 0.35 0.34 0.33 0.35 0.37 0.37 0.36 0.38 0.42 0.43 0.45 0.46 0.45 0.44
0.11 0.08 0.12 0.14 0.11 0.10 0.11 0.12 0.11 0.11 0.11 0.08 0.07 0.06 0.06 0.10 0.12 0.13 0.14 0.13 0.12 0.12 0.14 0.14 0.14 0.15 0.18 0.19 0.21 0.25 0.28 0.29 0.30 0.31 0.32 0.35 0.36 0.34 0.33 0.34 0.37 0.40 0.41 0.42
0.11 0.11 0.13 0.16 0.12 0.11 0.11 0.10 0.09 0.08 0.07 0.06 0.05 0.05 0.06 0.09 0.11 0.13 0.15 0.15 0.14 0.14 0.14 0.15 0.15 0.15 0.17 0.16 0.18 0.18 0.19 0.21 0.25 0.28 0.28 0.28 0.30 0.31 0.30 0.29 0.32 0.37 0.38 0.44
0.11 0.12 0.17 0.19 0.12 0.13 0.12 0.09 0.07 0.07 0.06 0.05 0.05 0.05 0.06 0.08 0.09 0.08 0.09 0.12 0.15 0.15 0.14 0.15 0.15 0.14 0.15 0.16 0.16 0.17 0.17 0.19 0.21 0.24 0.25 0.26 0.27 0.27 0.28 0.28 0.28 0.32 0.35 0.40